Regional Weather Roundup
Issued by NWS

Home | Current Version | Previous Version | Graphics & Text | Print | Product List | Glossary Off
Versions: 1 2 3 4 5 6 7 8 9 10 11 12 13 14 15 16 17 18 19 20 21 22 23 24 25 26 27 28 29 30 31 32 33 34 35 36 37 38 39 40 41 42 43 44 45 46 47 48 49 50

000
ASUS43 KTOP 212008
RWRKS

WEATHER ROUNDUP FOR KANSAS
NATIONAL WEATHER SERVICE GOODLAND KS
300 PM CDT SUN SEP 21 2014

NOTE:  "FAIR" INDICATES FEW OR NO CLOUDS BELOW 12,000 FEET WITH NO
SIGNIFICANT WEATHER AND/OR OBSTRUCTIONS TO VISIBILITY.

KSZ001>006-013>018-027>032-041>047-212100-
NORTHWEST KANSAS

CITY           SKY/WX    TMP DP  RH WIND       PRES   REMARKS
GOODLAND       CLOUDY    73  37  27 E8        30.33F
HAYS           SUNNY     77  43  29 NE8G18    30.26F
HILL CITY      SUNNY     79  37  22 NE10      30.28F
RUSSELL        SUNNY     79  43  27 N12       30.23F
$$

KSZ061>065-074>080-084>089-212100-
SOUTHWEST KANSAS

CITY           SKY/WX    TMP DP  RH WIND       PRES   REMARKS
DODGE CITY     SUNNY     82  37  20 NE9       30.26F
ELKHART          N/A     81  48  31 E8          N/A
GARDEN CITY    SUNNY     78  39  24 NE13G21   30.27F
GREAT BEND     MOSUNNY   75  45  33 NE9       30.25S
LIBERAL        SUNNY     82  45  26 E15       30.25F
PRATT          SUNNY     81  39  22 NE13G20   30.23F
$$

KSZ066>073-081>083-090>101-212100-
SOUTHEAST KANSAS

CITY           SKY/WX    TMP DP  RH WIND       PRES   REMARKS
CHANUTE        SUNNY     79  49  34 N10       30.15F
HUTCHINSON     MOSUNNY   78  46  32 N13       30.22F
MEDICINE LODGE   N/A     85  42  22 N9        30.19F
NEWTON         SUNNY     75  48  38 N13G22    30.23F
PARSONS        SUNNY     81  49  32 NW9G17    30.16F
WICHITA INTL   MOSUNNY   84  44  24 N15G24    30.19F
WICHITA JABRA  SUNNY     80  43  26 NE17      30.19F
WICHITA MCCONL HAZE      82  42  24 N14       30.19F VSB 3/4
WINFIELD       SUNNY     83  43  24 NE12      30.17F
$$

KSZ007>012-019>026-033>040-048>060-102>105-212100-
NORTHEAST KANSAS

CITY           SKY/WX    TMP DP  RH WIND       PRES   REMARKS
CONCORDIA      SUNNY     77  42  28 N16       30.22F
EMPORIA        SUNNY     78  46  32 N12G20    30.18F
LAWRENCE       SUNNY     77  46  33 N13G29    30.16F
MANHATTAN      SUNNY     80  43  26 N15G25    30.19F
MARYSVILLE     SUNNY     75  45  33 N14G22    30.20F
OLATHE IND     SUNNY     75  47  36 N17G23    30.16F
OLATHE EXE     SUNNY     76  47  35 N13       30.15F
SALINA         SUNNY     79  45  29 N10       30.22F
TOPEKA BILLARD SUNNY     78  47  33 N17       30.17F
TOPEKA FORBES  SUNNY     77  45  32 N15       30.17F
$$



USA.gov is the U.S. government's official web portal to all federal, state and local government web resources and services.